San Diego, CA

5:00 PM PST on February 05, 2016 (GMT -0800)
North Island Naval Air Station

Weather History for KNZY - January, 2014

Change the Weather History Date:

Sunday, January 12, 2014

  Actual Average Record
Temperature  
Mean Temperature 60 °F -  
Max Temperature 66 °F 61 °F 84 °F (2009)
Min Temperature 55 °F 47 °F 33 °F (2008)
Degree Days  
Heating Degree Days 4    
Growing Degree Days 10 (Base 50)    
Moisture  
Dew Point 52 °F    
Average Humidity 73    
Maximum Humidity 83    
Minimum Humidity 59    
Precipitation  
Precipitation 0.00 in - - ()
Sea Level Pressure  
Sea Level Pressure 30.08 in    
Wind  
Wind Speed 6 mph (NNW)    
Max Wind Speed 12 mph    
Max Gust Speed -    
Visibility 4 miles    
Events Fog    
Averages and records for this station are not official NWS values.
T = Trace of Precipitation, MM = Missing Value Source: NWS Daily Summary

Daily Weather History Graph

Daily Weather History Graph

Search for Another Location

Airport or City:

Trip Planner

Search our weather history database for the weather conditions in past years. The results will help you decide how hot, cold, wet, or windy it might be!

Date:

Astronomy

Jan. 12, 2014 Rise Set
Actual Time 6:51 AM PST 5:03 PM PST
Civil Twilight 6:24 AM PST 5:29 PM PST
Nautical Twilight 5:54 AM PST 6:00 PM PST
Astronomical Twilight 5:24 AM PST 6:29 PM PST
Moon 2:33 PM PST (1/12) 3:55 AM PST (1/12)
Length of Visible Light 11h 05m
Length of Day
10h 11m
Waxing Gibbous, 90% of the Moon is Illuminated
Jan 12
Waxing Gibbous
Jan 15
Full
Jan 23
Last Quarter
Jan 30
New
Feb 6
First Quarter

Hourly Weather History & Observations

Time (PST) Temp. Dew Point Humidity Pressure Visibility Wind Dir Wind Speed Gust Speed Precip Events Conditions
12:11 AM 61.0 °F 53.1 °F 75% 30.07 in 0.5 mi ENE 5.8 mph - N/A Fog Fog
12:52 AM 60.1 °F 53.1 °F 78% 30.05 in 0.5 mi ESE 8.1 mph - N/A Fog Fog
1:20 AM 59.0 °F 52.0 °F 78% 30.04 in 1.0 mi ESE 5.8 mph - N/A   Mostly Cloudy
1:52 AM 57.9 °F 52.0 °F 81% 30.05 in 1.0 mi Calm Calm - N/A   Mostly Cloudy
2:45 AM 59.0 °F 52.0 °F 78% 30.05 in 2.0 mi North 4.6 mph - N/A   Mostly Cloudy
2:52 AM 59.0 °F 52.0 °F 78% 30.06 in 2.0 mi North 5.8 mph - N/A   Mostly Cloudy
3:26 AM 59.0 °F 52.0 °F 78% 30.05 in 3.0 mi North 6.9 mph - N/A   Scattered Clouds
3:52 AM 59.0 °F 52.0 °F 78% 30.06 in 1.0 mi North 4.6 mph - N/A   Mostly Cloudy
4:31 AM 57.9 °F 51.1 °F 78% 30.06 in 0.8 mi North 6.9 mph - N/A   Overcast
4:52 AM 57.9 °F 51.1 °F 78% 30.05 in 0.8 mi NNE 6.9 mph - N/A   Overcast
5:52 AM 57.0 °F 52.0 °F 83% 30.06 in 0.2 mi Calm Calm - N/A Fog Fog
6:52 AM 55.9 °F 50.0 °F 80% 30.06 in 0.1 mi Calm Calm - N/A Fog Fog
7:52 AM 55.9 °F 50.0 °F 80% 30.09 in 0.2 mi North 4.6 mph - N/A Fog Fog
8:52 AM 55.9 °F 50.0 °F 80% 30.10 in 0.5 mi NW 6.9 mph - N/A Fog Fog
9:11 AM 57.9 °F 51.1 °F 78% 30.10 in 1.0 mi NNW 6.9 mph - N/A   Scattered Clouds
9:52 AM 62.1 °F 52.0 °F 70% 30.11 in 5.0 mi NW 8.1 mph - N/A   Haze
10:15 AM 63.0 °F 52.0 °F 67% 30.11 in 2.5 mi NW 10.4 mph - N/A   Haze
10:52 AM 61.0 °F 52.0 °F 72% 30.11 in 2.5 mi NNW 11.5 mph - N/A   Haze
11:52 AM 64.9 °F 52.0 °F 63% 30.08 in 5.0 mi NW 8.1 mph - N/A   Haze
12:10 PM 66.0 °F 52.0 °F 60% 30.07 in 5.0 mi NW 6.9 mph - N/A   Haze
12:52 PM 64.9 °F 52.0 °F 63% 30.05 in 5.0 mi NW 8.1 mph - N/A   Haze
1:52 PM 66.9 °F 53.1 °F 61% 30.06 in 6.0 mi NW 8.1 mph - N/A   Haze
2:52 PM 66.9 °F 53.1 °F 61% 30.06 in 7.0 mi NW 9.2 mph - N/A   Mostly Cloudy
3:52 PM 66.9 °F 52.0 °F 59% 30.06 in 7.0 mi NW 6.9 mph - N/A   Scattered Clouds
4:52 PM 64.0 °F 53.1 °F 67% 30.06 in 7.0 mi NW 5.8 mph - N/A   Scattered Clouds
5:52 PM 62.1 °F 53.1 °F 72% 30.08 in 7.0 mi NW 6.9 mph - N/A   Partly Cloudy
6:52 PM 62.1 °F 53.1 °F 72% 30.11 in 7.0 mi NNW 5.8 mph - N/A   Scattered Clouds
7:52 PM 61.0 °F 53.1 °F 75% 30.12 in 7.0 mi NNW 4.6 mph - N/A   Mostly Cloudy
8:52 PM 60.1 °F 52.0 °F 75% 30.12 in 7.0 mi Calm Calm - N/A   Mostly Cloudy
9:52 PM 60.1 °F 52.0 °F 75% 30.13 in 7.0 mi North 5.8 mph - N/A   Scattered Clouds
10:52 PM 57.9 °F 51.1 °F 78% 30.14 in 6.0 mi North 4.6 mph - N/A   Scattered Clouds
11:52 PM 57.0 °F 50.0 °F 77% 30.13 in 6.0 mi SW 5.8 mph - N/A   Partly Cloudy